Clinton-Sherman, OK

4:54 AM CDT on September 24, 2017 (GMT -0500)
Clinton-Sherman

Weather History for KCSM - October, 2012

Change the Weather History Date:

Tuesday, October 16, 2012

  Actual Average Record
Temperature  
Mean Temperature 70 °F -  
Max Temperature 86 °F 71 °F 91 °F (2016)
Min Temperature 55 °F 48 °F 34 °F (2001)
Cooling Degree Days 4    
Growing Degree Days 20 (Base 50)    
Moisture  
Dew Point 48 °F    
Average Humidity 49    
Maximum Humidity 70    
Minimum Humidity 26    
Precipitation  
Precipitation 0.00 in - - ()
Sea Level Pressure  
Sea Level Pressure 29.65 in    
Wind  
Wind Speed 12 mph (SSE)    
Max Wind Speed 17 mph    
Max Gust Speed 22 mph    
Visibility 10 miles    
Events      
Averages and records for this station are not official NWS values.
T = Trace of Precipitation, MM = Missing Value Source: NWS Daily Summary

Daily Weather History Graph

Daily Weather History Graph

Search for Another Location

Airport or City:

Trip Planner

Search our weather history database for the weather conditions in past years. The results will help you decide how hot, cold, wet, or windy it might be!

Date:

Astronomy

Oct. 16, 2012 Rise Set
Actual Time 7:44 AM CDT 6:59 PM CDT
Civil Twilight 7:18 AM CDT 7:25 PM CDT
Nautical Twilight 6:49 AM CDT 7:54 PM CDT
Astronomical Twilight 6:19 AM CDT 8:24 PM CDT
Moon 9:04 AM CDT (10/16) 7:50 PM CDT (10/16)
Length of Visible Light 12h 06m
Length of Day
11h 15m
New Moon, 2% of the Moon is Illuminated
Oct 16
New Moon
Oct 21
First Quarter
Oct 29
Full
Nov 6
Last Quarter
Nov 13
New

Hourly Weather History & Observations

Time (CDT) Temp. Dew Point Humidity Pressure Visibility Wind Dir Wind Speed Gust Speed Precip Events Conditions
12:53 AM 62.1 °F 43.0 °F 50% 29.85 in 10.0 mi South 9.2 mph - N/A   Clear
1:53 AM 62.1 °F 44.1 °F 52% 29.83 in 10.0 mi South 11.5 mph - N/A   Clear
2:53 AM 62.1 °F 45.0 °F 53% 29.82 in 10.0 mi South 10.4 mph 18.4 mph N/A   Clear
3:53 AM 59.0 °F 45.0 °F 60% 29.81 in 10.0 mi South 6.9 mph - N/A   Clear
5:53 AM 60.1 °F 46.0 °F 60% 29.76 in 10.0 mi South 9.2 mph - N/A   Clear
7:53 AM 55.9 °F 46.0 °F 69% 29.75 in 10.0 mi SE 13.8 mph - N/A   Clear
8:53 AM 61.0 °F 48.0 °F 62% 29.75 in 10.0 mi SSE 13.8 mph - N/A   Clear
9:53 AM 66.0 °F 48.9 °F 54% 29.75 in 10.0 mi South 16.1 mph - N/A   Clear
10:53 AM 71.1 °F 50.0 °F 47% 29.72 in 10.0 mi South 17.3 mph - N/A   Clear
11:53 AM 75.0 °F 51.1 °F 43% 29.71 in 10.0 mi SSE 16.1 mph - N/A   Clear
12:53 PM 77.0 °F 51.1 °F 40% 29.67 in 10.0 mi SSE 15.0 mph 19.6 mph N/A   Clear
1:53 PM 80.1 °F 50.0 °F 35% 29.64 in 10.0 mi SSW 15.0 mph 20.7 mph N/A   Clear
2:53 PM 82.0 °F 50.0 °F 33% 29.60 in 10.0 mi South 13.8 mph 20.7 mph N/A   Clear
3:53 PM 84.0 °F 46.9 °F 27% 29.57 in 10.0 mi SSW 12.7 mph 21.9 mph N/A   Clear
4:53 PM 84.9 °F 46.0 °F 26% 29.54 in 10.0 mi SSW 15.0 mph - N/A   Clear
5:53 PM 84.9 °F 46.9 °F 27% 29.52 in 10.0 mi South 13.8 mph - N/A   Clear
6:53 PM 75.0 °F 48.0 °F 38% 29.53 in 10.0 mi South 10.4 mph - N/A   Clear
7:53 PM 72.0 °F 46.9 °F 41% 29.53 in 10.0 mi ESE 10.4 mph - N/A   Clear
8:53 PM 66.9 °F 53.1 °F 61% 29.53 in 10.0 mi ESE 11.5 mph - N/A   Clear
9:53 PM 66.0 °F 51.1 °F 59% 29.52 in 10.0 mi SE 13.8 mph - N/A   Clear
10:53 PM 68.0 °F 54.0 °F 61% 29.50 in 10.0 mi South 15.0 mph - N/A   Clear
11:53 PM 64.0 °F 54.0 °F 70% 29.49 in 10.0 mi SSE 11.5 mph - N/A   Clear